SERIAL,TIME,MODEL,SN(OPTODE),OXYGEN,SATURATION,TEMPERATURE,CALPHASE,TCPHASE,C1RPH,C2RPH,C1AMP,C2AMP,RAWTEMP,CHECK
12,1336105008,4330,862,180.3516998291015600,53.4404983520507800,11.8435697555542000,36.8459701538085940,36.8463096618652340,41.3320007324218750,4.4856867790222170,814.3602294921875000,789.0140991210938000,359.1857910156250000,47214
12,1336106256,4330,862,175.2310943603515600,48.6959800720214840,9.1002912521362300,38.6846313476562500,38.6604804992675800,43.1329498291015600,4.4724659919738770,864.5551147460938000,818.1113891601562000,449.1076965332031000,1076
12,1336108021,4330,862,172.5993957519531200,48.4144783020019500,9.4911909103393550,38.6581611633300800,38.6343612670898440,43.0963401794433600,4.4619832038879395,863.4218139648438000,816.8037719726562000,436.3677978515625000,6291
12,1336108246,4330,862,170.6923065185547000,48.2425613403320300,9.8094692230224610,38.6236801147460940,38.6003417968750000,43.0656318664550800,4.4652857780456540,862.1224975585938000,812.4932861328125000,425.9747009277344000,43446
12,1336108507,4330,862,170.4562072753906200,48.8120307922363300,10.3666095733642580,38.3382797241210940,38.3187484741210940,42.7860984802246100,4.4673538208007810,854.2161254882812000,807.0988159179688000,407.7412109375000000,57356
12,1336108808,4330,862,170.9302062988281200,49.4607505798339840,10.8133096694946290,38.0625190734863300,38.0466613769531250,42.5203094482421900,4.4736480712890625,846.7501831054688000,801.7982788085938000,393.0873107910156000,16696
12,1336109031,4330,862,172.4571075439453000,50.5061912536621100,11.3328695297241210,37.6745185852050800,37.6638298034668000,42.1421508789062500,4.4783167839050290,836.2196044921875000,797.1870727539062000,376.0078125000000000,54466
12,1336109269,4330,862,175.7924041748047000,52.0419692993164060,11.8035697937011720,37.1860618591308600,37.1818809509277340,41.6624107360839840,4.4805369377136230,822.8267822265625000,791.6431274414062000,360.5046081542969000,57501
12,1336109494,4330,862,180.0442962646484400,53.7718200683593750,12.1900396347045900,36.6843299865722660,36.6868286132812500,41.1698608398437500,4.4830322265625000,809.5324707031250000,787.6409912109375000,347.7562866210937500,39538
12,1336109731,4330,862,187.1078948974609400,56.5227088928222660,12.6950101852417000,35.9441490173339840,35.9565086364746100,40.4425392150878900,4.4860229492187500,789.6788940429688000,782.4351806640625000,331.0761108398437500,27544
12,1336109978,4330,862,192.8280944824218800,58.7957496643066400,13.1104803085327150,35.3584899902343750,35.3786506652832000,39.8689384460449200,4.4902877807617190,773.8084716796875000,778.0731811523438000,317.3351135253906000,55618
12,1336110240,4330,862,198.2238006591797000,61.0408096313476560,13.5542898178100590,34.7939300537109400,34.8216209411621100,39.3161315917968750,4.4945139884948730,758.5731811523438000,773.7385253906250000,302.6418151855469000,13914
12,1336110483,4330,862,203.2006988525390600,63.1112289428710940,13.9416704177856450,34.2964401245117200,34.3307495117187500,38.8268890380859400,4.4961400032043460,744.9172973632812000,769.4111938476562000,289.8064880371094000,3833
12,1336110610,4330,862,205.1443023681640600,63.9963417053222660,14.1422004699707030,34.0805091857910160,34.1176986694335940,38.6153907775878900,4.4976878166198730,739.0667114257812000,767.4210205078125000,283.1589050292969000,54360
12,1336110716,4330,862,206.3578033447265600,64.6187973022461000,14.3147897720336910,33.9236183166503900,33.9628982543945300,38.4622001647949200,4.4993062019348145,734.8120727539062000,765.5546875000000000,277.4361877441406000,38362
12,1336110831,4330,862,206.5823059082031200,65.0362777709961000,14.5599098205566400,33.7895202636718750,33.8305892944335940,38.3332405090332000,4.5026469230651855,730.9882812500000000,763.4868164062500000,269.3062133789062500,59158
12,1336110946,4330,862,206.4268951416015600,65.2517929077148400,14.7465696334838870,33.7068405151367200,33.7490081787109400,38.2517204284668000,4.5027160644531250,728.6638183593750000,761.4091186523438000,263.1140136718750000,33246
12,1336111064,4330,862,207.2386932373047000,65.7019577026367200,14.8825702667236330,33.5929107666015600,33.6366004943847660,38.1376495361328100,4.5010528564453125,725.5247192382812000,759.7139282226562000,258.6014099121094000,22867
12,1336111179,4330,862,208.0549011230468800,66.3047714233398400,15.1231498718261720,33.4280204772949200,33.4738998413085940,37.9790191650390600,4.5051188468933105,720.9779052734375000,757.7451171875000000,250.6183013916015600,4645
12,1336111282,4330,862,207.5352020263672000,66.4761886596679700,15.3590898513793950,33.3434486389160160,33.3904609680175800,37.8969383239746100,4.5064849853515625,718.6486206054688000,755.4555053710938000,242.7877960205078000,43647
12,1336111400,4330,862,207.6949005126953000,66.8035125732421900,15.5521202087402340,33.2409896850585940,33.2893600463867200,37.7974205017089840,4.5080571174621580,715.7349243164062000,753.2540893554688000,236.3811035156250000,12625
12,1336111539,4330,862,209.2445068359375000,67.5121307373046900,15.6978397369384770,33.0814208984375000,33.1319313049316400,37.6397285461425800,4.5078048706054690,711.5203247070312000,751.7551879882812000,231.5440979003906200,46950
12,1336111707,4330,862,212.0115051269531200,68.7669830322265600,15.9453401565551760,32.8062286376953100,32.8604011535644500,37.3693885803222660,4.5089950561523440,703.8936767578125000,749.5358886718750000,223.3294982910156200,29117
12,1336111810,4330,862,215.5652008056640600,70.1520462036132800,16.1014404296875000,32.5340003967285160,32.5918006896972660,37.1032981872558600,4.5115051269531250,696.6345214843750000,747.9732055664062000,218.1484985351562500,2548
12,1336111913,4330,862,220.4309997558593800,71.9746170043945300,16.2583599090576170,32.1958007812500000,32.2580986022949200,36.7701797485351560,4.5120768547058105,687.5026245117188000,746.3956909179688000,212.9405059814453000,54840
12,1336112031,4330,862,220.4143981933593800,72.2297134399414000,16.4292392730712900,32.1165885925293000,32.1799507141113300,36.6957588195800800,4.5158162117004395,685.3886718750000000,744.6569824218750000,207.2700958251953000,56332
12,1336112170,4330,862,224.0231018066406200,73.7045211791992200,16.6176700592041000,31.8374691009521500,31.9045391082763670,36.4201011657714840,4.5155639648437500,677.7440795898438000,742.9030151367188000,201.0175018310547000,9896
12,1336112311,4330,862,224.3928070068359400,73.9695816040039000,16.7099609375000000,31.7753391265869140,31.8432407379150400,36.3581085205078100,4.5148701667785645,675.9016723632812000,741.7216186523438000,197.9555053710937500,7114
12,1336112450,4330,862,224.2075042724609400,74.1068496704101600,16.8376102447509770,31.7256202697753900,31.7941894531250000,36.3080406188964840,4.5138549804687500,674.4412841796875000,740.6876831054688000,193.7207946777343800,43942
12,1336112610,4330,862,228.5794982910156200,75.6872482299804700,16.9230003356933600,31.4608592987060550,31.5329494476318360,36.0476989746093750,4.5147480964660645,667.5194702148438000,739.7333984375000000,190.8885040283203000,4365
12,1336112732,4330,862,228.7875061035156200,75.9224700927734400,17.0278301239013670,31.4018192291259770,31.4747009277343750,35.9912910461425800,4.5165858268737790,665.9713745117188000,738.8696289062500000,187.4114074707031200,54310
12,1336112859,4330,862,229.6282958984375000,76.4255599975586000,17.1684207916259770,31.2945308685302730,31.3688392639160160,35.8856315612793000,4.5167918205261230,662.9774169921875000,737.7468872070312000,182.7490997314453000,18900
12,1336112977,4330,862,230.9969940185547000,77.0539932250976600,17.2762298583984380,31.1761798858642580,31.2520694732666000,35.7704010009765600,4.5183329582214355,659.8320922851562000,736.6179199218750000,179.1746978759765600,61018
12,1336113116,4330,862,232.6334991455078000,77.7696609497070300,17.3812904357910160,31.0465602874755860,31.1241703033447270,35.6423492431640600,4.5181808471679690,656.2885131835938000,735.6859741210938000,175.6914978027343800,8818
12,1336113257,4330,862,233.6280059814453000,78.2525787353515600,17.4739398956298830,30.9550495147705080,31.0338802337646500,35.5510597229003900,4.5171809196472170,653.8223266601562000,734.5150146484375000,172.6204986572265600,51527
12,1336113396,4330,862,234.2937927246093800,78.5912704467773400,17.5449504852294920,30.8899497985839840,30.9696407318115230,35.4891891479492200,4.5195469856262210,652.3439941406250000,733.9138183593750000,170.2669982910156200,37976
12,1336113556,4330,862,233.5050964355468800,78.5186233520507800,17.6631107330322270,30.8755798339843750,30.9554691314697270,35.4716682434082000,4.5162048339843750,651.8397827148438000,733.1046752929688000,166.3515014648437500,18308
12,1336113669,4330,862,232.9552001953125000,78.4879226684570300,17.7582302093505860,30.8598308563232420,30.9399299621582030,35.4594993591308600,4.5195770263671875,651.4227905273438000,732.2368164062500000,163.2001037597656200,4361
12,1336113772,4330,862,231.5895996093750000,78.1320724487304700,17.8229007720947270,30.8980998992919920,30.9776802062988280,35.4979286193847660,4.5202479362487790,652.5855712890625000,731.6718139648438000,161.0579986572265600,13047
12,1336113878,4330,862,231.3074951171875000,78.2013778686523400,17.9250297546386720,30.8661098480224600,30.9461193084716800,35.4664497375488300,4.5203318595886230,651.7656250000000000,730.7551269531250000,157.6752014160156200,47003
12,1336113957,4330,862,230.8939971923828000,78.2292861938476600,18.0292797088623050,30.8395805358886720,30.9199409484863280,35.4395904541015600,4.5196461677551270,651.0123291015625000,730.0200805664062000,154.2230987548828000,5876
12,1336114010,4330,862,229.9747009277343800,78.4574584960937500,18.3657894134521500,30.7343997955322270,30.8161697387695300,35.3354682922363300,4.5193018913269040,648.1463012695312000,729.9431152343750000,143.0850982666015600,15001
12,1336114071,4330,862,235.3861999511718800,81.0865783691406200,18.8419494628906250,30.2562999725341800,30.3444404602050780,34.8710594177246100,4.5266189575195310,634.8549804687500000,726.5961914062500000,127.3405990600586000,11817
12,1336114153,4330,862,253.0287017822265600,88.0263137817382800,19.3287696838378900,29.2283706665039060,29.3302001953125000,33.8611488342285160,4.5309448242187500,606.2197875976562000,719.7871093750000000,111.2652969360351600,25977
12,1336114233,4330,862,261.1954956054687500,90.9430770874023400,19.3700695037841800,28.8563499450683600,28.9631404876709000,33.4958610534668000,4.5327219963073730,596.0117797851562000,717.8925170898438000,109.9024963378906200,35304
12,1336114313,4330,862,264.0173034667969000,91.9451828002929700,19.3806705474853500,28.7326908111572270,28.8411293029785160,33.3765602111816400,4.5354309082031250,592.9213256835938000,717.2324829101562000,109.5526962280273400,33305
12,1336114384,4330,862,265.0730895996094000,92.3224563598632800,19.3858394622802730,28.6860809326171880,28.7951393127441400,33.3281402587890600,4.5330052375793460,591.7833862304688000,718.2227172851562000,109.3823013305664000,56618
12,1336114459,4330,862,265.4863891601562500,92.4639434814453100,19.3845100402832030,28.6693496704101560,28.7786293029785160,33.3127403259277340,4.5341191291809080,591.3903808593750000,716.9227905273438000,109.4260025024414000,25190
12,1336114530,4330,862,265.2528076171875000,92.3630065917968800,19.3739891052246100,28.6836204528808600,28.7927093505859380,33.3238601684570300,4.5311508178710940,591.7340698242188000,718.1643066406250000,109.7731018066406200,16119
12,1336114610,4330,862,264.8858032226562500,92.2434387207031200,19.3784103393554700,28.6972503662109380,28.8061599731445300,33.3375205993652340,4.5313639640808105,592.1951293945312000,717.0079956054688000,109.6275024414062500,55134
12,1336114690,4330,862,265.1615905761719000,92.3429031372070300,19.3802394866943360,28.6849193572998050,28.7939891815185550,33.3250389099121100,4.5310521125793460,591.9368286132812000,717.0175170898438000,109.5670013427734400,35274
12,1336114765,4330,862,265.8270874023437500,92.5561370849609400,19.3703098297119140,28.6613502502441400,28.7707405090332030,33.3006401062011700,4.5299072265625000,591.5001831054688000,717.1500854492188000,109.8947982788086000,51983
12,1336114873,4330,862,266.3681030273437500,92.7426528930664000,19.3693408966064450,28.6392707824707030,28.7489490509033200,33.2769203186035160,4.5279688835144040,591.0526123046875000,717.4547729492188000,109.9268035888671900,3974
12,1336114980,4330,862,265.6780090332031000,92.4764328002929700,19.3553791046142580,28.6740093231201170,28.7832298278808600,33.3127403259277340,4.5295181274414060,591.9666137695312000,717.6177978515625000,110.3871002197265600,26951
12,1336115100,4330,862,265.5126037597656000,92.4272537231445300,19.3598899841308600,28.6786994934082030,28.7878608703613280,33.3162193298339840,4.5283660888671875,592.3572998046875000,717.6964721679688000,110.2385025024414000,34095
12,1336115226,4330,862,265.7229919433594000,92.5035781860351600,19.3615493774414060,28.6693401336669920,28.7786197662353500,33.3080711364746100,4.5294489860534670,592.1535034179688000,717.8162841796875000,110.1836013793945300,37944
12,1336115345,4330,862,266.1477050781250000,92.6575469970703100,19.3648300170898440,28.6503295898437500,28.7598590850830080,33.2872200012207000,4.5273509025573730,591.8627929687500000,717.9163208007812000,110.0755004882812500,14207
12,1336115435,4330,862,266.5386047363281000,92.7987136840820300,19.3675498962402340,28.6328907012939450,28.7426490783691400,33.2700309753418000,4.5273737907409670,591.4003295898438000,717.8604736328125000,109.9857025146484400,39758
12,1336115490,4330,862,266.6151123046875000,92.8259735107421900,19.3678798675537100,28.6296291351318360,28.7394409179687500,33.2652015686035160,4.5257568359375000,591.3167114257812000,718.9705810546875000,109.9748001098632800,22310
12,1336115545,4330,862,266.6146850585937500,92.8294372558593800,19.3698196411132800,28.6287899017334000,28.7386093139648440,33.2639694213867200,4.5253601074218750,591.2692260742188000,718.8192138671875000,109.9108963012695300,8151
12,1336115600,4330,862,267.1054992675781000,93.0045013427734400,19.3720493316650400,28.6073207855224600,28.7174301147460940,33.2440490722656250,4.5266189575195310,590.8972778320312000,718.8513793945312000,109.8370971679687500,59440
12,1336115658,4330,862,267.5714111328125000,93.1778030395507800,19.3779697418212900,28.5855903625488280,28.6959800720214840,33.2207717895507800,4.5247879028320310,590.1818847656250000,718.9750976562500000,109.6418991088867200,32477
12,1336115713,4330,862,268.8198852539062500,93.6176605224609400,19.3806591033935550,28.5330390930175780,28.6441307067871100,33.1679115295410160,4.5237731933593750,588.9138183593750000,718.9119262695312000,109.5531997680664000,60953
12,1336115768,4330,862,269.3547058105469000,93.8059768676757800,19.3817405700683600,28.5105495452880860,28.6219501495361330,33.1469306945800800,4.5249857902526855,588.1848144531250000,718.9190063476562000,109.5175018310546900,51751
12,1336115823,4330,862,270.1105957031250000,94.0723266601562500,19.3833999633789060,28.4789390563964840,28.5907592773437500,33.1165885925293000,4.5258331298828125,587.5051879882812000,718.9788208007812000,109.4626998901367200,24337
12,1336115878,4330,862,270.5628051757812500,94.2418670654296900,19.3897304534912100,28.4577903747558600,28.5698890686035160,33.0945816040039060,4.5246891975402830,586.8198242187500000,718.9418945312500000,109.2537994384765600,7704
12,1336115933,4330,862,271.2197875976562500,94.4856567382812500,19.3976192474365230,28.4277801513671880,28.5402793884277340,33.0660514831543000,4.5257639884948730,586.1110229492188000,718.9765014648438000,108.9937973022461000,2704
12,1336115991,4330,862,271.8067932128906000,94.7011337280273400,19.4033794403076170,28.4015197753906250,28.5143699645996100,33.0399894714355500,4.5256271362304690,585.3355102539062000,718.9567871093750000,108.8037033081054700,48553
12,1336116046,4330,862,272.6695861816406000,95.0216903686523400,19.4138107299804700,28.3621196746826170,28.4754905700683600,32.9986495971679700,4.5231552124023440,584.4166259765625000,718.9669189453125000,108.4595031738281200,8313
12,1336116101,4330,862,273.5440979003906000,95.3450164794921900,19.4234905242919920,28.3228607177734380,28.4367599487304700,32.9619598388671900,4.5251998901367190,583.3339843750000000,718.9423828125000000,108.1402969360351600,15665
12,1336116156,4330,862,274.3973999023437500,95.6818771362304700,19.4440002441406250,28.2796897888183600,28.3941707611084000,32.9186210632324200,4.5244522094726560,582.0509033203125000,718.7805175781250000,107.4636993408203100,47627
12,1336116211,4330,862,275.3374023437500000,96.0286865234375000,19.4538593292236330,28.2379798889160160,28.3530006408691400,32.8762893676757800,4.5232849121093750,580.8875122070312000,718.7393188476562000,107.1387023925781200,1222
12,1336116266,4330,862,276.2792053222656000,96.3837127685546900,19.4675598144531250,28.1947002410888670,28.3103008270263670,32.8333702087402340,4.5230708122253420,579.7910156250000000,718.7119750976562000,106.6867980957031200,12052
12,1336116324,4330,862,277.0028076171875000,96.6837234497070300,19.4920692443847660,28.1556797027587900,28.2717990875244140,32.7969894409179700,4.5251851081848145,578.8952026367188000,718.5888061523438000,105.8783035278320300,46117
12,1336116379,4330,862,277.4480895996094000,97.0155868530273400,19.5827598571777340,28.0999107360839840,28.2167797088623050,32.7421798706054700,4.5253977775573730,577.3220825195312000,718.3355102539062000,102.8881988525390600,43231
12,1336116434,4330,862,277.7045898437500000,97.3627090454101600,19.7148704528808600,28.0343608856201170,28.1520996093750000,32.6767997741699200,4.5247039794921875,575.4149780273438000,717.4138793945312000,98.5337371826171900,61273
12,1336116489,4330,862,277.7645874023437500,97.5371704101562500,19.7935695648193360,27.9989700317382800,28.1171798706054700,32.6428489685058600,4.5256648063659670,574.5183105468750000,716.6107177734375000,95.9406967163086000,18442
12,1336116544,4330,862,277.4596862792969000,97.5739364624023400,19.8673992156982420,27.9802703857421880,28.0987300872802730,32.6272583007812500,4.5285258293151855,573.9523925781250000,715.8936157226562000,93.5086593627929700,24925
12,1336116599,4330,862,276.1043090820312500,97.4754180908203100,20.0623493194580080,27.9523696899414060,28.0712108612060550,32.5987701416015600,4.5275650024414060,572.9155273437500000,714.9893798828125000,87.0906906127929700,8882
12,1336116657,4330,862,275.1351013183594000,97.3644409179687500,20.1818809509277340,27.9409809112548830,28.0599594116210940,32.5899505615234400,4.5299911499023440,572.7036743164062000,713.5529174804688000,83.1577682495117200,10579
12,1336116712,4330,862,274.3698120117187500,97.2043533325195300,20.2392997741699220,27.9476299285888670,28.0665206909179700,32.5970191955566400,4.5305018424987790,572.7609252929688000,712.5482788085938000,81.2692871093750000,58890
12,1336116791,4330,862,273.6433105468750000,96.9918365478515600,20.2626094818115230,27.9668292999267580,28.0854606628417970,32.6195907592773440,4.5341258049011230,573.3878784179688000,710.8195190429688000,80.5027770996093800,21518
12,1336116870,4330,862,273.2069091796875000,96.8590469360351600,20.2739791870117200,27.9794597625732420,28.0979309082031250,32.6328506469726560,4.5349202156066895,573.6572875976562000,710.6135864257812000,80.1288528442382800,27429
12,1336116981,4330,862,272.7933044433594000,96.7577972412109400,20.2976398468017580,27.9862804412841800,28.1046600341796880,32.6394309997558600,4.5347671508789060,573.9871826171875000,710.4495239257812000,79.3507308959961000,18298
12,1336117036,4330,862,272.6878967285156000,96.7250289916992200,20.3000507354736330,27.9895305633544920,28.1078701019287100,32.6410408020019500,4.5331649780273440,574.0422973632812000,711.3322143554688000,79.2716598510742200,13695
12,1336117091,4330,862,272.6065063476562500,96.7017669677734400,20.3029804229736330,27.9916191101074220,28.1099205017089840,32.6447181701660160,4.5347981452941895,574.2075195312500000,711.3369140625000000,79.1750793457031200,17647
12,1336117146,4330,862,272.6058044433594000,96.7022933959961000,20.3033695220947270,27.9914798736572270,28.1097908020019530,32.6446495056152340,4.5348658561706540,574.3621826171875000,711.2802124023438000,79.1622924804687500,22082
12,1336117201,4330,862,272.6391906738281000,96.7165069580078100,20.3045806884765620,27.9894905090332030,28.1078300476074220,32.6431083679199200,4.5352859497070310,574.4168701171875000,711.3123779296875000,79.1224670410156200,63592
12,1336117256,4330,862,272.5252075195312500,96.6738662719726600,20.3034706115722660,27.9945602416992200,28.1128292083740230,32.6461906433105500,4.5333561897277830,574.4224853515625000,711.2891845703125000,79.1589508056640600,42183
12,1336117311,4330,862,272.4646911621094000,96.6573867797851600,20.3060607910156250,27.9959907531738280,28.1142406463623050,32.6468505859375000,4.5326080322265625,574.6381835937500000,711.3972167968750000,79.0739822387695300,6842
12,1336117363,4330,862,272.5118103027344000,96.6745910644531200,20.3062896728515620,27.9939708709716800,28.1122493743896500,32.6465797424316400,4.5343317985534670,574.6790771484375000,711.4268188476562000,79.0663070678711000,55314
12,1336117409,4330,862,272.5378112792969000,96.6750183105468800,20.3017292022705080,27.9947490692138670,28.1130199432373050,32.6451110839843750,4.5320892333984375,574.7075195312500000,711.3677978515625000,79.2161865234375000,14315
12,1336117454,4330,862,272.3999023437500000,96.6205368041992200,20.2988090515136720,28.0015792846679700,28.1197605133056640,32.6511306762695300,4.5313720703125000,574.8045043945312000,711.4802856445312000,79.3121795654296900,35403
12,1336117500,4330,862,272.5723876953125000,96.6801986694336000,20.2980308532714840,27.9950809478759770,28.1133403778076170,32.6469993591308600,4.5336527824401855,574.8757934570312000,711.5390014648438000,79.3380432128906200,45822
12,1336117546,4330,862,272.6471862792969000,96.6999130249023400,20.2944602966308600,27.9934597015380860,28.1117401123046880,32.6455383300781250,4.5337982177734375,574.9655761718750000,711.6232299804688000,79.4552688598632800,43452
12,1336117597,4330,862,272.5921020507812500,96.6815872192382800,20.2951107025146500,27.9954109191894530,28.1136703491210940,32.6478309631347660,4.5341567993164060,574.9387207031250000,711.7089843750000000,79.4340286254882800,26875
12,1336117656,4330,862,272.5982971191406000,96.6782684326171900,20.2922401428222660,27.9963207244873050,28.1145706176757800,32.6482315063476560,4.5336608886718750,575.0499267578125000,711.8900756835938000,79.5283432006836000,18282
12,1336117701,4330,862,272.6644897460937500,96.7034072875976600,20.2931003570556640,27.9933891296386720,28.1116695404052730,32.6467094421386700,4.5350418090820310,575.0648803710938000,710.2069702148438000,79.5000228881836000,15069
12,1336117739,4330,862,272.7723083496094000,96.7486572265625000,20.2967700958251950,27.9875793457031250,28.1059398651123050,32.6392517089843750,4.5333099365234375,575.0233154296875000,710.3713989257812000,79.3795471191406200,55320
12,1336119069,4330,862,275.7461853027344000,96.0995864868164000,19.4167804718017580,28.2374305725097660,28.3524608612060550,32.8795318603515600,4.5270690917968750,582.4763793945312000,715.5178222656250000,108.3616027832031200,36926
12,1336119089,4330,862,276.2564086914062500,95.7437667846679700,19.1410293579101560,28.3335304260253900,28.4472808837890620,32.9745903015136700,4.5273132324218750,585.1666870117188000,714.8345947265625000,117.4617996215820300,22036
12,1336119109,4330,862,271.8406982421875000,95.1064605712890600,19.6098308563232420,28.3128604888916000,28.4268894195556640,32.9567489624023440,4.5298609733581540,584.5609130859375000,715.0607299804688000,101.9957962036132800,25420
12,1336119129,4330,862,273.9111022949219000,96.0863265991211000,19.7427597045898440,28.1735401153564450,28.2894306182861330,32.8170890808105500,4.5276570320129395,580.5527954101562000,714.6557006835938000,97.6146774291992200,61905